Other Public Products
Issued by NWS Grand Forks, ND

Home | Current Version | Previous Version | Graphics & Text | Print | Product List | Glossary On
Versions: 1 2 3 4 5 6 7 8 9 10 11 12 13 14 15 16 17 18 19 20 21 22 23 24 25 26 27 28 29 30 31 32 33 34 35 36 37 38 39 40 41 42 43 44 45 46 47 48 49 50
000
FPUS83 KFGF 161510
OPUFGF
PRAIRIE TO PINES WEATHER ROUNDUP
NATIONAL WEATHER SERVICE EASTERN NORTH DAKOTA/GRAND FORKS ND
900 AM CST MON JAN 16 2017

 **SATELLITE DATA USED TO AUGMENT SKY COVER AT AUTOMATED STATIONS**
 *****  WEATHER ACROSS EASTERN NORTH DAKOTA  *****

CITY           SKY/WX    TMP DP  RH WIND       PRES   REMARKS
GRAND FORKS    FAIR       5  -1  76 S8        30.07R WCI  -8
GRAND FORKS AF FAIR       9   1  70 SW9       30.06R WCI  -5
GRAND CITY NWS NOT AVBL
BUXTON         NOT AVBL
DEVILS LAKE    FAIR       5   1  83 SW5       30.03S WCI  -4
FARGO          FAIR      10   7  87 S9        30.10R WCI  -3
WAHPETON ARPT  FAIR       7   3  85 CALM      30.11S
$$

 *****  WEATHER ACROSS CENTRAL AND WESTERN NORTH DAKOTA  *****

CITY           SKY/WX    TMP DP  RH WIND       PRES   REMARKS
JAMESTOWN      FAIR      11   4  73 W7        30.05R WCI   0
BISMARCK       FAIR      -6 -11  79 CALM      30.09S
MINOT          FAIR      16  10  77 W9        30.03R WCI   4
MINOT AFB      NOT AVBL
GARRISON         N/A     12   6  77 W7        30.06R WCI   1
WILLISTON      FAIR       5   1  83 SW8       30.12R WCI  -8
DICKINSON      FAIR      12   6  77 W14       30.05R WCI  -3
HETTINGER      FAIR      11   4  73 CALM      30.09R
$$

 *****  OTHER OBSERVATIONS NORTHEAST NORTH DAKOTA  *****

CITY           SKY/WX    TMP DP  RH WIND       PRES   REMARKS
WALHALLA       NOT AVBL
LANGDON        NOT AVBL
CAVALIER         N/A      7   1  78 W3        30.03S
GRAFTON        FAIR       3   0  85 S9        30.06S WCI -11
CANDO          NOT AVBL
FORT TOTTEN      N/A     10   4  77 W3        29.95S
ROLLA            N/A    N/A N/A N/A MISG        N/A
RUGBY            N/A      5   1  85 W9        30.03R WCI  -9
 ***** THE ABOVE OBSERVATIONS ARE NON NWS ARE NOT QUALITY
        CONTROLLED AND MAY MIS-REPORT RAIN FOR SNOW...
$$

 *****  OTHER OBSERVATIONS SOUTHEAST NORTH DAKOTA *****

CITY           SKY/WX    TMP DP  RH WIND       PRES   REMARKS
COOPERSTOWN    FAIR       1  -2  85 SW7       30.06R WCI -11
VALLEY CITY    FAIR      10   5  79 W5        30.08R WCI   2
OAKES          NOT AVBL
GWINNER        FAIR      12   9  85 W10       30.07F WCI  -1
BUFFALO        NOT AVBL
WYNDMERE       NOT AVBL
 ***** THE ABOVE OBSERVATIONS ARE NON NWS ARE NOT QUALITY
       CONTROLLED AND MAY MIS-REPORT RAIN FOR SNOW...
$$

  *****  WEATHER ACROSS NORTHERN MINNESOTA  *****

CITY           SKY/WX    TMP DP  RH WIND       PRES   REMARKS
FLAG ISLAND    FAIR       3   0  85 SE6       30.04S WCI  -8
WARROAD        FAIR       7   1  78 CALM      30.05R
ROSEAU         FAIR       1  -2  85 CALM      30.04S
HALLOCK        FAIR       3   0  85 SE10      30.03S WCI -12
THF RVR FALLS  FAIR      10   6  84 SW9       30.07R WCI  -3
HALSTAD        NOT AVBL
FOSSTON        FAIR      12  10  92 S12       30.07S WCI  -2
BAUDETTE       FAIR       3   0  87 SE3       30.04R
WASKISH        FAIR      10   9  92 SW3       30.05R
CROOKSTON      FAIR       7   3  85 S7        30.09S WCI  -5
$$
  *****  WEATHER ACROSS CENTRAL AND WEST MINNESOTA  *****

CITY           SKY/WX    TMP DP  RH WIND       PRES   REMARKS
BEMIDJI        FAIR       8   6  91 S5        30.06R FOG     WCI   0
PARK RAPIDS    LGT SNOW   7   2  80 SE7       30.07S WCI  -5
WADENA         FAIR       1  -2  85 CALM      30.08F
DETROIT LAKES    N/A     12  10  92 CALM      30.09S FOG
MOORHEAD       FAIR      10   9  92 S6        30.10S FOG     WCI   1
FERGUS FALLS   FAIR      12   9  85 S9        30.14F WCI   0
ELBOW LAKE     FAIR      14  11  89 SE7       30.09S FOG     WCI   3
MORRIS MN      FAIR      10   7  85 SE6       30.09F WCI   1
STAPLES        FAIR       5   1  85 CALM      30.09F FOG
WHEATON        FAIR      10   9  92 E5        30.12R WCI   2
$$
  *****  WEATHER ELSEWHERE ACROSS MINNESOTA  *****

CITY           SKY/WX    TMP DP  RH WIND       PRES   REMARKS
DULUTH         FAIR      16  14  92 W9        30.10S WCI   4
INTRNTL FALLS  FAIR       2  -1  88 CALM      30.06R
ELY            FAIR       1   0  92 CALM      30.09R
CLOQUET        FAIR      16  12  86 SW5       30.11F FOG     WCI   9
BRAINERD       FAIR       4   1  88 NW3       30.11S FOG
HIBBING        FOG       -2  -3  96 NW3       30.11R VSB 1/4
ALEXANDRIA     FAIR      10   8  92 SE5       30.09F FOG     WCI   2
SAINT CLOUD    FAIR       5   3  91 SE3       30.15R FOG
MINNEAPOLIS    MOCLDY    18  13  80 CALM      30.17F
$$

  *****  WEATHER ACROSS SOUTH DAKOTA  *****

CITY           SKY/WX    TMP DP  RH WIND       PRES   REMARKS
SIOUX FALLS    CLOUDY    24  20  84 NE3       30.07R
BROOKINGS      FAIR      12   9  87 CALM      30.06F
WATERTOWN      FAIR       6   3  87 CALM      30.07S FOG
HURON          FAIR      11   7  84 CALM      30.10F
SISSETON         N/A     13  10  88 SW7       30.07S WCI   3
ABERDEEN       FAIR      -1  -6  79 SW6       30.10S WCI -13
MITCHELL       FAIR      18  16  92 NW7       30.10S FOG     WCI   9
PIERRE         FAIR       8   4  83 SW5       30.09S WCI   0
MOBRIDGE       FAIR       2  -5  72 N7        30.05S WCI -11
RAPID CITY     FAIR      27   9  46 N18       30.08R WCI  14
$$

  *****  SOME WEATHER IN NEARBY STATES *****

CITY           SKY/WX    TMP DP  RH WIND       PRES   REMARKS
GLASGOW MT     FAIR       0  -3  87 W5        30.13R WCI -10
GREAT FALLS MT FAIR      23  10  57 S17       30.08F WCI   9
CHEYENNE WY    CLOUDY    31  15  52 N14       30.02R WCI  21
SCOTTSBLUFF NE CLOUDY    34  21  59 NW8       30.05R
OMAHA NE       LGT RAIN  33  29  85 NE6       29.99S FOG
DES MOINES IA  FRZ RAIN  33  31  92 E10       30.05F FOG     WCI  25
DAVENPORT IA   MIX PCPN  32  31  96 E10       30.17F VSB 1   WCI  24
CHICAGO IL     LGT RAIN  33  30  88 E10       30.24F FOG     WCI  25
EAU CLAIRE WI  FAIR      10   7  87 NE5       30.19F WCI   2
LA CROSSE WI   LGT RAIN N/A N/A N/A E6        30.20S
$$

  *****  SOME NATIONAL WEATHER *****

CITY           SKY/WX    TMP DP  RH WIND       PRES   REMARKS
LA GUARDIA NY  FAIR      36  20  52 NE5       30.47S
RALEIGH NC     CLOUDY    45  23  42 E6        30.45R
ATLANTA GA     CLOUDY    57  52  83 E3        30.32R
NEW ORLEANS LA PTSUNNY   69  65  86 SE9       30.16R
OKLAHOMA CITY  CLOUDY    40  38  93 SW17G25   29.92R
ALBUQUERQUE NM MOCLDY    36  35  96 S7        29.96R
SALT LAKE CITY FLURRIES  24  18  77 N12       30.28R WCI  13
LOS ANGELES CA MOCLDY    54  50  86 N3        30.07R
BOISE ID       FAIR       3  -2  79 CALM      30.45S
SEATTLE WA     FAIR      33  28  81 SE3       30.20S
$$

*** WEATHER ACROSS MANITOBA...SASKATCHEWAN AND ONTARIO ***
                ***ONTARIO***

CITY           SKY/WX    TMP DP  RH WIND       PRES   REMARKS
GERALDTON      MOCLDY    23  16  74 W6        30.05R WCI  16
THUNDER BAY    PTCLDY     3   1  92 W6        30.12R WCI  -8
SIOUX LOOKOUT  MOCLDY    10   9  92 S5        30.04R WCI   2
TORONTO        PTSUNNY   30  23  74 SW12      30.33S WCI  21
BIG TROUT LK   LGT SNOW  12  10  92 E3        30.03R
PICKLE LAKE    FOG       16  14  93 W3        30.02R VSB 1
DRYDEN         MOCLDY    12   9  85 S7        30.03R WCI   2
KENORA         NOT AVBL
$$
                *** MANITOBA***

CITY           SKY/WX    TMP DP  RH WIND       PRES   REMARKS
BRANDON        PTCLDY     7   1  78 W10       30.01R WCI  -8
DAUPHIN        CLEAR     21  16  79 W13       30.00R WCI   9
ISLAND LAKE    CLOUDY    19  18  93 S9        30.01R FOG     WCI   9
PILOT MOUND      N/A      9   5  85 W5          N/A  WCI   0
THE PAS        PTCLDY    14  10  85 S3        29.93R
THOMPSON       FLURRIES  16  14  93 SE5       29.91S WCI   9
WINNIPEG       CLOUDY     7   3  85 S8        30.03R WCI  -6
LYNN LAKE      FOG       19  19 100 S6        29.78S VSB 1/2 WCI  11
CHURCHILL      MOCLDY   -13 -18  77 S9        30.02F WCI -31
GILLAM         CLOUDY    -4  -9  77 SE5       30.05R WCI -15
$$
                ***SASKATCHEWAN***

CITY           SKY/WX    TMP DP  RH WIND       PRES   REMARKS
ESTEVAN        PTCLDY     7   5  92 W7        30.06R WCI  -5
KINDERSLEY     PTCLDY    10   7  85 S12       29.97F WCI  -4
LLOYDMINSTER   PTCLDY    21  14  73 SW14      29.85F WCI   8
PRINCE ALBERT  MOCLDY    -2  -6  84 E3        29.94F
REGINA         CLEAR      5   3  92 SW8       30.05S WCI  -8
YORKTON        CLEAR      9   7  92 S7        30.00S WCI  -3
N. BATTLEFORD  CLEAR     21  16  79 W6        29.93F WCC1F1C2F2C3F3C4F4C5F5C6F6C7F7C8F8C9F9CaFaCbFbCcFcCdFdCe!


USA.gov is the U.S. government's official web portal to all federal, state and local government web resources and services.